Погода в Большенаполовском

Россия / Ростовская область     49°26′12″N   41°25′25″E
темп.,
°C
ветер,
м/с
пор.,
м/с
влажн.,
%
обл.,
%
осадки,
мм/ч
давл.,
гПа
погр.,
м
6 мая, чт
чт600:00+9ю33595 0.0 101722
03:00+8ю33625 0.0 101740
06:00+9ююв3768100 0.0 1017134
09:00+15ююв575197 0.0 1017998
12:00+17ю6742100 0.0 10161766
15:00+18ю6740100 0.0 10152114
18:00+17ю4754100 0.0 1013253
21:00+14ююв41061100 0.0 1014215
7 мая, пт
пт700:00+12ююв3669100 0.0 1013100
03:00+11ююв4972100 0.0 1013182
06:00+12ю51072100 0.0 1013280
09:00+13ююз3570100 0.1 1014438
12:00+17зюз3463100 0.6 10141024
15:00+15сз667226 3.2 1015896
18:00+13ссз457555 0.2 1016551
21:00+13ссв226699 0.3 101834
8 мая, сб
сб800:00+8в33907 0.0 101844
03:00+8вюв2289100 0.0 101716
06:00+9ююв3585100 0.0 1017135
09:00+15ю5765100 0.0 1015618
12:00+19ююз6852100 0.0 10141647
15:00+20ююз7951100 0.0 10121842
18:00+19ююз61162100 0.0 1011641
21:00+14ююз41181100 0.0 1011240
9 мая, вс
вс900:00+11сз5895100 0.0 1012273
03:00+10ссз61087100 0.0 1013610
06:00+8ссз71178100 0.0 1014576
09:00+7с81385100 0.5 1014725
12:00+6с81293100 7.1 1016872
15:00+6с91493100 13.7 1016906
18:00+6с91492100 4.6 1018985
21:00+6ссв91687100 6.2 1019922
10 мая, пн
пн1000:00+6с71489100 0.0 1020969
03:00+6ссз81589100 0.1 1020853
06:00+6с91687100 0.0 1021805
09:00+7с91785100 0.3 1022846
12:00+7ссв91589100 1.1 1022750
15:00+7ссв91890100 1.8 1021631
18:00+10ссв81887100 0.4 1021710
21:00+10ссв101986100 0.4 1020730